Regional Weather Roundup
Issued by NWS Charleston, SC

Current Version | Previous Version | Graphics & Text | Print | Product List | Glossary On
Versions: 1 2 3 4 5 6 7 8 9 10 11 12 13 14 15 16 17 18 19 20 21 22 23 24 25 26 27 28 29 30 31 32 33 34 35 36 37 38 39 40 41 42 43 44 45 46 47 48 49 50
000 ASUS42 KCHS 170125 RWRCHS REGIONAL WEATHER ROUNDUP NATIONAL WEATHER SERVICE CHARLESTON SC 900 PM EDT TUE SEP 16 2014 NOTE: "FAIR" INDICATES FEW OR NO CLOUDS BELOW 12,000 FEET WITH NO SIGNIFICANT WEATHER AND/OR OBSTRUCTIONS TO VISIBILITY. NOT ALL STATIONS ARE QUALITY CONTROLLED BY THE NATIONAL WEATHER SERVICE. USE DATA WITH CAUTION...ESPECIALLY DEWPOINT OBSERVATIONS. SCZ027-030-031-034>040-042>050-170200- ...SOUTH CAROLINA... CITY SKY/WX TMP DP RH WIND PRES REMARKS N CHARLESTON HVY RAIN 74 71 91 VRB7 29.97F FOG WATERFRONT PRK N/A 79 N/A N/A NW3 N/A FORT JOHNSON NOT AVBL MOUNT PLEASANT LGT RAIN 73 72 94 CALM 29.96F JOHNS ISLAND PTCLDY 73 73 100 CALM 29.97F PINOPOLIS N/A 73 70 88 S3G10 29.89F MONCKS CORNER LGT RAIN 73 72 94 CALM 29.96F SUMMERVILLE LGT RAIN 72 72 100 CALM 29.97F BEAUFORT MCAS RAIN 75 73 93 W8 29.98R BEAUFORT ARPT LGT RAIN 75 75 100 N6 29.97S HILTON HEAD IS LGT RAIN 75 75 100 N3 29.98S GEORGETOWN NOT AVBL WALTERBORO DRIZZLE 73 N/A N/A E7 29.98F ORANGEBURG MOCLDY 74 69 85 SE10G20 29.98R BARNWELL MOCLDY 79 73 83 SE14 29.98R AIKEN FAIR 77 73 88 CALM 30.00R MANNING FAIR 73 73 100 SW6 29.97S KINGSTREE NOT AVBL COLUMBIA PTCLDY 80 70 71 SE5 29.95R SUMTER PTCLDY 76 69 80 S9 29.96R FLORENCE PTCLDY 76 71 85 SW8 29.97R MYRTLE BEACH MOCLDY 77 73 88 SW6 29.97S N MYRTLE BEACH PTCLDY 79 71 76 S6 29.96R $$ GAZ063-065-086>088-099>101-113>116-118-119-134-136>141-150-170200- ...GEORGIA... CITY SKY/WX TMP DP RH WIND PRES REMARKS SAVANNAH ARPT TSTM 76 65 68 N9 29.96F HUNTER AAF CLOUDY 74 71 88 NE6 29.95R FORT STEWART CLOUDY 76 73 89 N5 29.95R STATESBORO NOT AVBL SYLVANIA CLOUDY 78 76 94 CALM 29.98R CLAXTON MOCLDY 75 75 100 E9 29.97R THOMSON PTCLDY 76 76 100 CALM 30.00S AUGUSTA-BUSH MOCLDY 75 72 90 CALM 29.94R AUGUSTA-DANIEL MOCLDY 82 70 66 CALM 29.96R SWAINSBORO FAIR 75 72 88 CALM 29.97S VIDALIA CLOUDY 77 68 73 N10 29.99R ALMA CLOUDY 71 70 96 S3 29.97S WAYCROSS LGT RAIN 74 73 96 SW6 29.97F JESUP FAIR 79 73 83 W5 29.96R BRUNSWICK CLOUDY 77 72 83 SW5 29.96S SAINT SIMONS CLOUDY 77 74 90 W5 29.95S $$ SCZ027-028-034-036>038-045-046-048>050-GAZ119-141-170200- ...LAKE AND SUPPLEMENTAL COASTAL OBSERVATIONS... STATION/POSITION TIME TEMP WIND PRES WAVE SWELL AIR SEA DIR/SP/G HT/PER HT/PER/DIR (UTC) (F) (DEG/KT/KT) (MB) (FT/S) (FT/S/D) UPR LAKE MARION NOT AVBL WINYAH BAY 0100 74 250/ 4 1015.0S LAKE MURRAY 0000 82 110/ 3/ 4 1013.2R ACE BASIN NERRS 0100 73 20/ 1 1015.0S FORT PULASKI 0100 76 330/ 4/ 5 1014.9R SAPELO ISLAND 0100 79 240/ 6 1015.0S $$ ANZ835-935-AMZ111-154-330-350-352-354-374-450-454-472-170200- ...C-MAN AND BUOY OBSERVATIONS... STATION/POSITION TIME TEMP WIND PRES WAVE SWELL AIR SEA DIR/SP/G HT/PER HT/PER/DIR (UTC) (F) (DEG/KT/KT) (MB) (FT/S) (FT/S/D) FOLLY BEACH CMAN 0100 74 320/ 5/ 7 1015.7R BUOY 41004 0100 79 83 360/ 6/ 8 1014.6R 2/13 2/13 BUOY 41008 0100 81 85 210/ 8/ 10 1014.2R 1/ 8 2/ 80/ 8 5E ST. MARYS GA 0100 84 N/A 2/13 FRYING PAN BUOY NOT AVBL BUOY 41025 0100 76 290/ 2/ 4 1014.5F 2/ 8 2/ 40/ 8 CAPE LOOKOUT NC 0100 78 200/ 5/ 6 1014.5R BUOY 41002 0003 77 82 130/ 12/ 14 1015.0S 4/13 3/100/13 BUOY 41010 0100 81 85 280/ 2/ 4 1015.5R 3/ 7 2/ 80/ 7 BUOY 41012 NOT AVBL ST AUGUSTINE FL 0100 76 230/ 6/ 7 1015.5F CAPERS NEARSHORE 0000 76 310/ 4/ 4 N/A FRIPP NEARSHORE NOT AVBL $$

USA.gov is the U.S. government's official web portal to all federal, state and local government web resources and services.